Index of /culture/melchardt/SS2014-SAmerika1_melchart

[ICO]NameLast modifiedSizeDescription

[DIR]Parent Directory  -  
[IMG]sa 1 Karte.tif26-Feb-2014 13:00 3.2M 
[IMG]sa 10 Taino Häuptlingsgrab mit Duho.tif26-Feb-2014 13:00 776K 
[IMG]sa 100 Quimbaya Anhänger.tif26-Feb-2014 13:00 939K 
[IMG]sa 101 Quimbaya Anhänger.tif26-Feb-2014 13:00 1.2M 
[IMG]sa 102 Quimbaya Keramik Figur.tif26-Feb-2014 13:00 786K 
[IMG]sa 103 Quimbaya Keramik Figur.tif26-Feb-2014 13:00 420K 
[IMG]sa 104 Quimbaya Keramik Figur.tif26-Feb-2014 13:00 1.5M 
[IMG]sa 105 Quimbaya Keramik Figur.tif26-Feb-2014 13:00 1.3M 
[IMG]sa 105a Quimbaya Keramik Figur.tif26-Feb-2014 13:00 505K 
[IMG]sa 106 Muisca Goldfloss.tif26-Feb-2014 13:00 312K 
[IMG]sa 107 MUisca Goldfloss.tif26-Feb-2014 13:00 651K 
[IMG]sa 108 Muisca Tunjo.tif26-Feb-2014 13:00 114K 
[IMG]sa 109 Muisca Tunjo.tif26-Feb-2014 13:00 195K 
[IMG]sa 11 Taino Duho Stuhl.tif26-Feb-2014 13:00 697K 
[IMG]sa 110 Muisca Tunjo.tif26-Feb-2014 13:00 852K 
[IMG]sa 111 Muisca Tunjo.tif26-Feb-2014 13:00 278K 
[IMG]sa 112 Muisca Tunjo.tif26-Feb-2014 13:00 457K 
[IMG]sa 112a Muisca Tunjo.tif26-Feb-2014 13:00 615K 
[IMG]sa 113 Muisca Tunjo.tif26-Feb-2014 13:00 463K 
[IMG]sa 114 Musica Tunjo Schnecke.tif26-Feb-2014 13:00 124K 
[IMG]sa 115 Muisca Tunjo Schlange.tif26-Feb-2014 13:00 197K 
[IMG]sa 115a Muisca Tunjo Schnupftablett.tif26-Feb-2014 13:00 123K 
[IMG]sa 116 Muisca Brustplatte.tif26-Feb-2014 13:00 811K 
[IMG]sa 117 Muisca Brustplatte.tif26-Feb-2014 13:00 460K 
[IMG]sa 118 Muisca Keramik Figur.tif26-Feb-2014 13:00 895K 
[IMG]sa 118a Muisca Keramik Figur.tif26-Feb-2014 13:00 766K 
[IMG]sa 119 San Augustin Figur Stein.tif26-Feb-2014 13:00 325K 
[IMG]sa 12 Duho.tif26-Feb-2014 13:00 1.2M 
[IMG]sa 120 San Augustin Grabkammer Eingang.tif26-Feb-2014 13:01 1.0M 
[IMG]sa 121 San Augustin Figur Stein Katzen-Gott.tif26-Feb-2014 13:01 836K 
[IMG]sa 122 San Augustin Figur Stein Katzen-Gott.tif26-Feb-2014 13:01 1.0M 
[IMG]sa 123 San Augustin Figur Stein Katzen-Gott.tif26-Feb-2014 13:01 589K 
[IMG]sa 124 San Augustin Stein Alter-Ego.tif26-Feb-2014 13:01 1.8M 
[IMG]sa 125 San Augustin Stein Alter-Ego.tif26-Feb-2014 13:01 906K 
[IMG]sa 126 Valdivia Venus Figur Keramik.tif26-Feb-2014 13:01 368K 
[IMG]sa 126a Valdivia Figur Keramik 2000 v. Chr..tif26-Feb-2014 13:01 108K 
[IMG]sa 127 Chorrera Keramik Figur Ekuador.tif26-Feb-2014 13:01 901K 
[IMG]sa 128 Chorrera Keramik Figur Ekuador.tif26-Feb-2014 13:01 953K 
[IMG]sa 129 Chorrera Gefäß.tif26-Feb-2014 13:01 297K 
[IMG]sa 13 Duho.tif26-Feb-2014 13:01 2.0M 
[IMG]sa 130 Manabi Figur Keramik Ekuador.tif26-Feb-2014 13:01 362K 
[IMG]sa 131 Manabi Keramik 2 Figuren.tif26-Feb-2014 13:01 382K 
[IMG]sa 132 La Tolita Goldschmuck Nase u. Fisch.tif26-Feb-2014 13:01 334K 
[IMG]sa 133 La Tolita Keramik Torso realistisch.tif26-Feb-2014 13:01 909K 
[IMG]sa 134 Charchi-Kultur Keramik Coca-Kauer.tif26-Feb-2014 13:01 363K 
[IMG]sa 135 Costa Rica Diquis-Kultur Anhänger.tif26-Feb-2014 13:01 231K 
[IMG]sa 136 Costa Rica Diquis-Kultur Anhänger.tif26-Feb-2014 13:01 242K 
[IMG]sa 137 Costa Rica Diquis-Kultur Anhänger.tif26-Feb-2014 13:01 242K 
[IMG]sa 138 Costa Rica Diquis-Kultur Anhänger.tif26-Feb-2014 13:01 1.3M 
[IMG]sa 139 Panama Veraguas-Kultur Anhänger.tif26-Feb-2014 13:01 343K 
[IMG]sa 14 Duho.tif26-Feb-2014 13:01 1.1M 
[IMG]sa 140 Panama Veraguas-Kultur Anhänger.tif26-Feb-2014 13:01 378K 
[IMG]sa 141 Costa Rica Nicoya-Kultur Keramik.tif26-Feb-2014 13:01 317K 
[IMG]sa 142 Costa Rica Nicoya-Kultur Keramik.tif26-Feb-2014 13:01 361K 
[IMG]sa 142a Costa Rica Nicoya-Kultur Keramik.tif26-Feb-2014 13:01 1.7M 
[IMG]sa 143 Costa Rica Nicoya-Kultur Keramik.tif26-Feb-2014 13:01 1.2M 
[IMG]sa 144 Costa Rica Metate Jaguar Nicoya-Kultur.tif26-Feb-2014 13:01 603K 
[IMG]sa 145 Costa Rica Metate Kondor Nicoya-Kultur.tif26-Feb-2014 13:01 866K 
[IMG]sa 146 Panama Veraguas-Kultur Metate Jaguar.tif26-Feb-2014 13:01 168K 
[IMG]sa 147 Costa Rica Steinskulptur.tif26-Feb-2014 13:01 1.3M 
[IMG]sa 148 Costa Rica Steinskulptur Gefangener.tif26-Feb-2014 13:01 1.2M 
[IMG]sa 149 Costa Rica Steinskulptur Hockender.tif26-Feb-2014 13:01 1.4M 
[IMG]sa 15 Duho.tif26-Feb-2014 13:01 1.9M 
[IMG]sa 150 Panama Steinskulptur Cocle-Kultur.tif26-Feb-2014 13:01 502K 
[IMG]sa 151 Panama Steinskulptur Chiriqui-Kultur.tif26-Feb-2014 13:01 731K 
[IMG]sa 152 Panama Steinskulptur Chiriqui-Kultur.tif26-Feb-2014 13:01 751K 
[IMG]sa 153 Chavin de Huantar Tempel Nordtor.tif26-Feb-2014 13:01 888K 
[IMG]sa 154 Chavin Lanzon-Stein im Tempel.tif26-Feb-2014 13:01 115K 
[IMG]sa 154a Chavin Lanzon-Stein Foto.tif26-Feb-2014 13:01 400K 
[IMG]sa 154b Chavin Lanzon-Stein Zeichnung.tif26-Feb-2014 13:01 458K 
[IMG]sa 155 Chavin de Huantar Katzenkopf in Mauer.tif26-Feb-2014 13:01 1.0M 
[IMG]sa 156 Chavin de Huantar Stein Relief.tif26-Feb-2014 13:01 1.0M 
[IMG]sa 157 Chavin Keramik.tif26-Feb-2014 13:01 266K 
[IMG]sa 158 Chavin Opferteller geritzt.tif26-Feb-2014 13:01 207K 
[IMG]sa 159 Chavin Keramik.tif26-Feb-2014 13:01 248K 
[IMG]sa 16 Duho.tif26-Feb-2014 13:01 595K 
[IMG]sa 160 Chavin Keramik.tif26-Feb-2014 13:01 1.9M 
[IMG]sa 161 Chavin Keramik.tif26-Feb-2014 13:01 3.3M 
[IMG]sa 162 Chavin Keramik.tif26-Feb-2014 13:01 800K 
[IMG]sa 163 Chavin Keramik.tif26-Feb-2014 13:01 701K 
[IMG]sa 164 Chavin Keramik.tif26-Feb-2014 13:02 1.8M 
[IMG]sa 165 Chavin Keramik.tif26-Feb-2014 13:02 791K 
[IMG]sa 166 Chavin Keramik Lastenträger.tif26-Feb-2014 13:02 1.2M 
[IMG]sa 167 Chavin Keramik geritzt.tif26-Feb-2014 13:02 476K 
[IMG]sa 168 Chavin Keramik Stehender.tif26-Feb-2014 13:02 741K 
[IMG]sa 169 Chavin Keramik.tif26-Feb-2014 13:02 483K 
[IMG]sa 17 Taino Cohoba Zeremonie.tif26-Feb-2014 13:02 439K 
[IMG]sa 170 Chavin Becher Lama-Kopf.tif26-Feb-2014 13:02 463K 
[IMG]sa 171 Chavin Keramik.tif26-Feb-2014 13:02 530K 
[IMG]sa 172 Chavin Keramik Frucht.tif26-Feb-2014 13:02 2.3M 
[IMG]sa 173 Chavin Gold-Applique.tif26-Feb-2014 13:02 445K 
[IMG]sa 174 Chavin Gold-Krone getrieben.tif26-Feb-2014 13:02 335K 
[IMG]sa 175 Chavin Gold-Relief getrieben.tif26-Feb-2014 13:02 1.5M 
[IMG]sa 176 Chavin Textil bemalt.tif26-Feb-2014 13:02 1.0M 
[IMG]sa 177 Chavin Knochen-Spatel geritzt.tif26-Feb-2014 13:02 382K 
[IMG]sa 178 Chavin Stein-Becher reliefiert.tif26-Feb-2014 13:02 576K 
[IMG]sa 179 Chavin Stein-Perlen.tif26-Feb-2014 13:02 505K 
[IMG]sa 18 Taino Cohoba Tablett.tif26-Feb-2014 13:02 1.1M 
[IMG]sa 180 Chavin Stein-Mörser.tif26-Feb-2014 13:02 260K 
[IMG]sa 181 Chavin Keulen-Köpfe Stein.tif26-Feb-2014 13:02 760K 
[IMG]sa 182 Recuay-Kultur Keramik.tif26-Feb-2014 13:02 605K 
[IMG]sa 183 Recuay-Kultur Gefäß Tempel.tif26-Feb-2014 13:02 1.0M 
[IMG]sa 184 Vicus-Kultur Keramik.tif26-Feb-2014 13:02 288K 
[IMG]sa 185 Vicus-Kultur Keramik Negativ-Malerei.tif26-Feb-2014 13:02 503K 
[IMG]sa 186 Vicus-Kultur keramische Urne männlich.tif26-Feb-2014 13:02 1.2M 
[IMG]sa 187 Vicus-Kultur Doppelgefäß m. Affe.tif26-Feb-2014 13:02 484K 
[IMG]sa 188 Salinar-Kultur Gefäß.tif26-Feb-2014 13:02 468K 
[IMG]sa 189 Salinar-Kultur Jäger m. Beute Keramik.tif26-Feb-2014 13:02 1.0M 
[IMG]sa 19 Cohoba Tablett.tif26-Feb-2014 13:02 1.0M 
[IMG]sa 190 Salinar-Kultur Mumienkopf Schale 500-300 v. Chr..tif26-Feb-2014 13:02 273K 
[IMG]sa 191 Salinar-Kultur Gefäß Affe.tif26-Feb-2014 13:02 447K 
[IMG]sa 192 Moche Sonnenpyramide.tif26-Feb-2014 13:02 559K 
[IMG]sa 193 Moche Ai-Apec.tif26-Feb-2014 13:02 780K 
[IMG]sa 194 Moche Ai-Apec Kupfer versilbert.tif26-Feb-2014 13:02 861K 
[IMG]sa 195 Moche Ai-Apec Kupfer versilbert.tif26-Feb-2014 13:02 246K 
[IMG]sa 196 Moche Ai-Apec Kupfer versilbert.tif26-Feb-2014 13:02 1.2M 
[IMG]sa 197 Moche Porträtkopf.tif26-Feb-2014 13:02 1.2M 
[IMG]sa 198 Moche Kugelgefäß bemalt.tif26-Feb-2014 13:02 326K 
[IMG]sa 199 Moche Gefäß bemalt m. Figur.tif26-Feb-2014 13:02 465K 
[IMG]sa 2 Karte polit..tif26-Feb-2014 13:02 3.5M 
[IMG]sa 20 Zemi Kopf Cohoba Tablett.tif26-Feb-2014 13:02 1.9M 
[IMG]sa 200 Moche Porträtkopf.tif26-Feb-2014 13:02 351K 
[IMG]sa 201 Moche Porträtkopf.tif26-Feb-2014 13:02 411K 
[IMG]sa 202 Moche Porträtkopf.tif26-Feb-2014 13:02 80K 
[IMG]sa 203 Moche Porträtkopf.tif26-Feb-2014 13:02 66K 
[IMG]sa 204 Moche Porträtkopf.tif26-Feb-2014 13:02 95K 
[IMG]sa 205 Moche Porträtkopf.tif26-Feb-2014 13:02 206K 
[IMG]sa 206 Moche Porträtkopf.tif26-Feb-2014 13:02 1.7M 
[IMG]sa 207 Moche Trommler.tif26-Feb-2014 13:02 1.0M 
[IMG]sa 207a Moche Flötenspieler.tif26-Feb-2014 13:02 393K 
[IMG]sa 208 Moche Bohnen-Dämon mit Flöte.tif26-Feb-2014 13:02 592K 
[IMG]sa 208a Moche Coca-Kauer.tif26-Feb-2014 13:02 316K 
[IMG]sa 209 Moche Frau beim Bohnen-Orakel.tif26-Feb-2014 13:02 304K 
[IMG]sa 209a Moche küssendes Paar.tif26-Feb-2014 13:02 162K 
[IMG]sa 21 Cohoba Tablett 2 Zemi.tif26-Feb-2014 13:02 1.2M 
[IMG]sa 210 Moche erotische Szene.tif26-Feb-2014 13:03 221K 
[IMG]sa 211 Moche erotische Szene.tif26-Feb-2014 13:03 224K 
[IMG]sa 212 Moche Penis-Gefäß.tif26-Feb-2014 13:03 276K 
[IMG]sa 213 Moche Blinder m. kleinem Fuchs.tif26-Feb-2014 13:03 373K 
[IMG]sa 214 Moche Blinder.tif26-Feb-2014 13:03 288K 
[IMG]sa 215 Moche Mann mit Hasenscharte.tif26-Feb-2014 13:03 301K 
[IMG]sa 216 Moche Mann mit Hautausschlag.tif26-Feb-2014 13:03 149K 
[IMG]sa 216a Moche Ein-Beiniger mit Stock.tif26-Feb-2014 13:03 791K 
[IMG]sa 217 Moche Gefangener.tif26-Feb-2014 13:03 298K 
[IMG]sa 218 Gefangener mit Raubtier.tif26-Feb-2014 13:03 260K 
[IMG]sa 219 Trophäen-Kopf.tif26-Feb-2014 13:03 93K 
[IMG]sa 22 Cohoba Tablett.tif26-Feb-2014 13:03 3.1M 
[IMG]sa 220 Moche Trophäen-Kopf.tif26-Feb-2014 13:03 223K 
[IMG]sa 221 Moche Ai-Apec.tif26-Feb-2014 13:03 1.1M 
[IMG]sa 222 Moche Ai-Apec.tif26-Feb-2014 13:03 80K 
[IMG]sa 223 Moche Ai-Apec.tif26-Feb-2014 13:03 1.4M 
[IMG]sa 224 Moche Ai-Apec als Trommler.tif26-Feb-2014 13:03 420K 
[IMG]sa 225 Moche Skelett.tif26-Feb-2014 13:03 216K 
[IMG]sa 225a Moche Totenkopf.tif26-Feb-2014 13:03 229K 
[IMG]sa 226 Moche Skelett als Jäger.tif26-Feb-2014 13:03 214K 
[IMG]sa 227 Moche liegendes Reh.tif26-Feb-2014 13:03 527K 
[IMG]sa 228 Moche Kondor.tif26-Feb-2014 13:03 158K 
[IMG]sa 228a Moche Affe.tif26-Feb-2014 13:03 670K 
[IMG]sa 228b Moche Schnecke.tif26-Feb-2014 13:03 291K 
[IMG]sa 229 Moche Lama.tif26-Feb-2014 13:03 146K 
[IMG]sa 23 Cohoba Schale Zemi Griff.tif26-Feb-2014 13:03 261K 
[IMG]sa 230 Moche Affe.tif26-Feb-2014 13:03 148K 
[IMG]sa 231 Moche Fledermaus.tif26-Feb-2014 13:03 162K 
[IMG]sa 232 Moche kleiner Seelöwe.tif26-Feb-2014 13:03 133K 
[IMG]sa 233 Moche Eule.tif26-Feb-2014 13:03 130K 
[IMG]sa 234 Moche Lama-Kopf.tif26-Feb-2014 13:03 161K 
[IMG]sa 235 Moche Frosch.tif26-Feb-2014 13:03 159K 
[IMG]sa 236 Moche Jaguar liegend.tif26-Feb-2014 13:03 1.0M 
[IMG]sa 237 Moche Kormoran.tif26-Feb-2014 13:03 217K 
[IMG]sa 238 Moche Frau in Lama-Packtasche.tif26-Feb-2014 13:03 851K 
[IMG]sa 239 Moche Jaguar.tif26-Feb-2014 13:03 385K 
[IMG]sa 24 Zemi Griff.tif26-Feb-2014 13:03 1.9M 
[IMG]sa 240 Moche Katzenartige spielend.tif26-Feb-2014 13:03 657K 
[IMG]sa 241 Moche Priester od. Gott hält Kormoran.tif26-Feb-2014 13:03 1.0M 
[IMG]sa 242 Moche Bote laufend.tif26-Feb-2014 13:03 315K 
[IMG]sa 243 Moche Gefangener.tif26-Feb-2014 13:03 521K 
[IMG]sa 244 Moche Totenmaske Tumbaga Kupfer-Gold.tif26-Feb-2014 13:03 1.4M 
[IMG]sa 245 Moche Kopfschmuck Gold Ai-Apec.tif26-Feb-2014 13:03 1.4M 
[IMG]sa 246 Moche Ai-Apec Anhänger Gold.tif26-Feb-2014 13:03 1.0M 
[IMG]sa 247 Moche Nase Silber Gold.tif26-Feb-2014 13:03 707K 
[IMG]sa 248 Moche Nase Silber Gold.tif26-Feb-2014 13:03 613K 
[IMG]sa 249 Moche Nase Gold.tif26-Feb-2014 13:03 221K 
[IMG]sa 25 Cohoba Spatel Zemi.tif26-Feb-2014 13:03 864K 
[IMG]sa 250 Moche Nase Gold.tif26-Feb-2014 13:03 240K 
[IMG]sa 251 Moche Ohrpflöcke Gold.tif26-Feb-2014 13:03 142K 
[IMG]sa 252 Moche Ohrpflock Gold Türkis.tif26-Feb-2014 13:03 541K 
[IMG]sa 253 Moche Ohrpflöcke Gold Türkis Muschel.tif26-Feb-2014 13:03 644K 
[IMG]sa 254 Moche Ohrpflock Gold Türkis Krieger Speer Speerschleu.tif26-Feb-2014 13:03 1.4M 
[IMG]sa 255 Moche Sipan Brustplatte Tumbaga Totenmaske Kupfer.tif26-Feb-2014 13:03 962K 
[IMG]sa 256 Moche Sipan Erdnuss-Kette Gold-Silber.tif26-Feb-2014 13:03 779K 
[IMG]sa 256a Moche Sipan Ohrpflöcke.tif26-Feb-2014 13:03 913K 
[IMG]sa 257 Moche Sipan Ohrpflock Fürst Gold Türkis.tif26-Feb-2014 13:03 1.8M 
[IMG]sa 258 Moche Sipan gr. Gold-Maske Raubtier-Gott.tif26-Feb-2014 13:03 574K 
[IMG]sa 259 Moche Sipan Dämonen-Masken-Kette.tif26-Feb-2014 13:03 785K 
[IMG]sa 26 Spatel Zemi.tif26-Feb-2014 13:03 439K 
[IMG]sa 260 Moche Sipan Siilber-Beigaben Ai-Apec-Platte.tif26-Feb-2014 13:03 368K 
[IMG]sa 261 Moche Sipan Keramik-Grabbeigaben.tif26-Feb-2014 13:03 1.3M 
[IMG]sa 262 Chimu Hauptstadt Chanchan.tif26-Feb-2014 13:03 333K 
[IMG]sa 262a Chimu Hauptstadt Chanchan.tif26-Feb-2014 13:04 1.5M 
[IMG]sa 263 Chimu Chanchan Adobe-Reliefs.tif26-Feb-2014 13:04 216K 
[IMG]sa 264 Chimu Chanchan Lehm-Reliefs.tif26-Feb-2014 13:04 398K 
[IMG]sa 265 Chimu Kulturheros Naymlap Gold Steine.tif26-Feb-2014 13:04 873K 
[IMG]sa 267 Chimu Keramik Opferszene.tif26-Feb-2014 13:04 1.1M 
[IMG]sa 268 Chimu Keramik Manta-Rochen.tif26-Feb-2014 13:04 299K 
[IMG]sa 269 Chimu Keramik Mumien-Bündel-Träger.tif26-Feb-2014 13:04 519K 
[IMG]sa 27 Spatel Cohoba.tif26-Feb-2014 13:04 1.8M 
[IMG]sa 270 Chimu Textil bemalte Baumwolle.tif26-Feb-2014 13:04 1.4M 
[IMG]sa 271 Chimu Textil Baumwolle bemalt Gefangene.tif26-Feb-2014 13:04 304K 
[IMG]sa 272 Chimu Textil Hemd gewebt.tif26-Feb-2014 13:04 233K 
[IMG]sa 273 Chimu Textil Baumw. Wolle Appliken.tif26-Feb-2014 13:04 697K 
[IMG]sa 273a Chimu Federn-Poncho.tif26-Feb-2014 13:04 558K 
[IMG]sa 274 Chimu Textil Baumw. Silber Federn.tif26-Feb-2014 13:04 972K 
[IMG]sa 274a Chimu Federn-Poncho.tif26-Feb-2014 13:04 1.2M 
[IMG]sa 274b Chimu Kragen Muschelperlen aus Chanchan.tif26-Feb-2014 13:04 1.3M 
[IMG]sa 275 Chimu Totenmaske Gold Farbe.tif26-Feb-2014 13:04 1.3M 
[IMG]sa 276 Chimu-Lambayeque Totenmaske Gold.tif26-Feb-2014 13:04 1.2M 
[IMG]sa 277 Chimu -LambayequeTotenmaske Gold.tif26-Feb-2014 13:04 400K 
[IMG]sa 278 Chimu-Lambayeque Totenmaske Gold.tif26-Feb-2014 13:04 949K 
[IMG]sa 278a Chimu-Lambayeque Totenmaske Gold u. Steintränen.tif26-Feb-2014 13:04 837K 
[IMG]sa 279 Chimu Totenmaske Gold Farbe.tif26-Feb-2014 13:04 502K 
[IMG]sa 279a Chimu Totenmaske Gold Steine.tif26-Feb-2014 13:04 1.1M 
[IMG]sa 28 Schnupf-Röhrchen.tif26-Feb-2014 13:04 1.5M 
[IMG]sa 280 Chimu Gold-Hände einer Fürsten-Mumie.tif26-Feb-2014 13:04 1.0M 
[IMG]sa 281 Chimu Zeremonialmesser Tumi Kupfer.tif26-Feb-2014 13:04 486K 
[IMG]sa 282 Chimu Tumi Gold Türkise.tif26-Feb-2014 13:04 288K 
[IMG]sa 283 Chimu Tumi Gold Türkise.tif26-Feb-2014 13:04 567K 
[IMG]sa 284 Chimu Tumi Gold Türkise.tif26-Feb-2014 13:04 828K 
[IMG]sa 285 Chimu Tumi Gold Türkise.tif26-Feb-2014 13:04 645K 
[IMG]sa 286 Chimu Tumi m. Lama Gold Türkise.tif26-Feb-2014 13:04 563K 
[IMG]sa 287 Chimu Coca-Behälter Jaguar Gold.tif26-Feb-2014 13:04 605K 
[IMG]sa 288 Chimu-Lambayeque Gold-Kanne.tif26-Feb-2014 13:04 670K 
[IMG]sa 289 Chimu Gold-Gefäß.tif26-Feb-2014 13:04 201K 
[IMG]sa 29 Schnupf-Röhrchen.tif26-Feb-2014 13:04 785K 
[IMG]sa 290 Chimu Gold-Becher.tif26-Feb-2014 13:04 319K 
[IMG]sa 291 Chimu Becher Gold Türkise.tif26-Feb-2014 13:04 288K 
[IMG]sa 292 Chimu Krone Gold.tif26-Feb-2014 13:04 249K 
[IMG]sa 293 Chimu Ohrpflöcke Gold Türkise.tif26-Feb-2014 13:04 410K 
[IMG]sa 294 Chimu Ohrpflöcke Gold Steine Muschel.tif26-Feb-2014 13:04 284K 
[IMG]sa 295 Chimu Silber-Gefäß liegender Hirsch.tif26-Feb-2014 13:04 1.0M 
[IMG]sa 296 Chimu Silberbecher Krieger m Keule u. Schild.tif26-Feb-2014 13:04 309K 
[IMG]sa 297 Chimu Panflötenspieler Silber Steine.tif26-Feb-2014 13:04 951K 
[IMG]sa 298 Chancay Keramik Figur.tif26-Feb-2014 13:04 1.2M 
[IMG]sa 299 Chancay Keramik Figur.tif26-Feb-2014 13:04 139K 
[IMG]sa 3 Karte Klima.tif26-Feb-2014 13:04 1.1M 
[IMG]sa 30 Spatel z. Erbrechen.tif26-Feb-2014 13:04 534K 
[IMG]sa 300 Chancay Keramik Figur.tif26-Feb-2014 13:04 158K 
[IMG]sa 300a Chancay Keramik Figuren.tif26-Feb-2014 13:04 1.4M 
[IMG]sa 301 Chancay Grab Figuren Mumienbündel.tif26-Feb-2014 13:04 443K 
[IMG]sa 302 Chancay Mumienbündel m Maske.tif26-Feb-2014 13:04 146K 
[IMG]sa 303 Chancay Mumienmaske.tif26-Feb-2014 13:04 446K 
[IMG]sa 304 Chancay Mumienmaske m Turban.tif26-Feb-2014 13:04 1.4M 
[IMG]sa 305 Chancay Textil gewebt.tif26-Feb-2014 13:04 936K 
[IMG]sa 306 Chancay Textil gestickt Affen.tif26-Feb-2014 13:04 1.0M 
[IMG]sa 307 Chancay Textil gewebt Gottheit.tif26-Feb-2014 13:04 301K 
[IMG]sa 308 Chancay Textil gewebt.tif26-Feb-2014 13:04 1.0M 
[IMG]sa 309 c Chancay Textil Netz-Gewebe fein.tif26-Feb-2014 13:04 179K 
[IMG]sa 309 Chancay Textil Jaguar gewebt.tif26-Feb-2014 13:05 651K 
[IMG]sa 309a Chancay Textil gewebt.tif26-Feb-2014 13:05 116K 
[IMG]sa 309b Chancay Textil gewebt.tif26-Feb-2014 13:05 150K 
[IMG]sa 31 Spatel z. Erbrechen Griff.tif26-Feb-2014 13:05 1.4M 
[IMG]sa 310 Chancay Textil Poncho.tif26-Feb-2014 13:05 1.9M 
[IMG]sa 311 Paracas Cav. Grab m Mumien.tif26-Feb-2014 13:05 165K 
[IMG]sa 312 Paracas Schädel Deformation.tif26-Feb-2014 13:05 341K 
[IMG]sa 313 Paracas Schädel Deformation.tif26-Feb-2014 13:05 642K 
[IMG]sa 314 Paracas Schädel deformiert.tif26-Feb-2014 13:05 107K 
[IMG]sa 315 Paracas Schädel deformiert.tif26-Feb-2014 13:05 236K 
[IMG]sa 316 Paracas Schädel trepaniert.tif26-Feb-2014 13:05 319K 
[IMG]sa 317 Paracas Schädel ttrepaniert geschnitten.tif26-Feb-2014 13:05 485K 
[IMG]sa 318 Paracas Schädel trepaniert geschnitten.tif26-Feb-2014 13:05 341K 
[IMG]sa 319 Paracas Schädel trepaniert gebohrt.tif26-Feb-2014 13:05 494K 
[IMG]sa 32 Spatel z. Erbrechen.tif26-Feb-2014 13:05 1.2M 
[IMG]sa 320 Paracas Schädel trepaniert gebohrt.tif26-Feb-2014 13:05 210K 
[IMG]sa 321 Paracas Trepanations-Werkzeug Obsidian.tif26-Feb-2014 13:05 189K 
[IMG]sa 322 Paracas Tumi m Trepanations-Szene.tif26-Feb-2014 13:05 452K 
[IMG]sa 323 Paracas Keramik früh.tif26-Feb-2014 13:05 474K 
[IMG]sa 324 Paracas Keramik früh.tif26-Feb-2014 13:05 630K 
[IMG]sa 325 Paracas Keramik Schale früh.tif26-Feb-2014 13:05 531K 
[IMG]sa 326 Paracas Keramik Übergang.tif26-Feb-2014 13:05 1.4M 
[IMG]sa 327 Paracas Keramik Übergang.tif26-Feb-2014 13:05 250K 
[IMG]sa 328 Paracas Teller Übergang.tif26-Feb-2014 13:05 2.0M 
[IMG]sa 329 Paracas Keramik Übergang.tif26-Feb-2014 13:05 554K 
[IMG]sa 33 Zemi Urne Muschelscheiben.tif26-Feb-2014 13:05 1.6M 
[IMG]sa 330 Paracas Keramik spät.tif26-Feb-2014 13:05 398K 
[IMG]sa 331 Paracas Keramik Mittel spät.tif26-Feb-2014 13:05 425K 
[IMG]sa 332 Paracas Keramik spät.tif26-Feb-2014 13:05 290K 
[IMG]sa 333 Paracas Keramik spät.tif26-Feb-2014 13:05 159K 
[IMG]sa 334 Paracas Necropolis Mumie.tif26-Feb-2014 13:05 134K 
[IMG]sa 335 Paracas Necropolis Mumie.tif26-Feb-2014 13:05 136K 
[IMG]sa 336 Paracas Necropolis Mumienbündel.tif26-Feb-2014 13:05 100K 
[IMG]sa 337 Paracas Necropolis Mumienbündel.tif26-Feb-2014 13:05 145K 
[IMG]sa 338 Paracas Necropolis Mumienbündel.tif26-Feb-2014 13:05 212K 
[IMG]sa 339 Paracas Necropolis Mumienbündel.tif26-Feb-2014 13:05 477K 
[IMG]sa 339a Paracas Necropolis Mumienbündel.tif26-Feb-2014 13:05 162K 
[IMG]sa 339b Paracas Mumie ausgewickelt.tif26-Feb-2014 13:05 268K 
[IMG]sa 34 Zemi Urne Muschelscheiben.tif26-Feb-2014 13:05 4.4M 
[IMG]sa 340 Paracas Necropolis Totentuch.tif26-Feb-2014 13:05 1.0M 
[IMG]sa 340a Paracas Totentuch.tif26-Feb-2014 13:05 953K 
[IMG]sa 341 Paracas Mumienmaske gemalt früh.tif26-Feb-2014 13:05 1.3M 
[IMG]sa 342 Paracas Poncho spät.tif26-Feb-2014 13:05 959K 
[IMG]sa 343 Paracas Poncho spät.tif26-Feb-2014 13:05 1.0M 
[IMG]sa 345 Paracas Tuch Schal gestickt.tif26-Feb-2014 13:05 366K 
[IMG]sa 346 Paracas Hemd.tif26-Feb-2014 13:05 548K 
[IMG]sa 347 Paracas Hemd.tif26-Feb-2014 13:05 401K 
[IMG]sa 348 Paracas Borte gestrickt.tif26-Feb-2014 13:05 572K 
[IMG]sa 348a Paracas Kragen gestrickt.tif26-Feb-2014 13:05 848K 
[IMG]sa 349 Paracas Gewebe gestrickt figural.tif26-Feb-2014 13:05 1.5M 
[IMG]sa 35 Zemi Urne Textil.tif26-Feb-2014 13:05 1.5M 
[IMG]sa 350 Paracas Gewebe gestrickt figural.tif26-Feb-2014 13:05 1.2M 
[IMG]sa 351 Paracas Stickerei mytholog. Wesen.tif26-Feb-2014 13:05 1.3M 
[IMG]sa 352 Paracas Stickerei Tänzer.tif26-Feb-2014 13:05 1.1M 
[IMG]sa 353 Paracas Stickerei myth. Katzen-Vogel.tif26-Feb-2014 13:05 1.5M 
[IMG]sa 354 Paracas Stickerei myth Wesen u. Kopftrophäe.tif26-Feb-2014 13:05 774K 
[IMG]sa 355 Paracas Borte Mensch m. Kopftrophäen.tif26-Feb-2014 13:05 427K 
[IMG]sa 356 Kopf-Trophäe.tif26-Feb-2014 13:05 163K 
[IMG]sa 357 Paracas Keramik spät.tif26-Feb-2014 13:05 281K 
[IMG]sa 358 Paracas Keramik Früchte spät.tif26-Feb-2014 13:06 834K 
[IMG]sa 359 Nazca Keramik.tif26-Feb-2014 13:06 136K 
[IMG]sa 36 Zemi Kopf-Urne Textil Röntgenbild Turin.tif26-Feb-2014 13:06 619K 
[IMG]sa 360 Nazca Keramik Becher Krieger.tif26-Feb-2014 13:06 616K 
[IMG]sa 361 Nazca Keramik.tif26-Feb-2014 13:06 835K 
[IMG]sa 361a Nazca Keramik.tif26-Feb-2014 13:06 254K 
[IMG]sa 361b Nazca Keramik.tif26-Feb-2014 13:06 191K 
[IMG]sa 362 Nazca Keramik Kopf-Becher.tif26-Feb-2014 13:06 1.0M 
[IMG]sa 362a Nazca Kopf-Becher.tif26-Feb-2014 13:06 307K 
[IMG]sa 362b Nazca Kopf-Becher.tif26-Feb-2014 13:06 235K 
[IMG]sa 363 Nazca Keramik m Köpfen.tif26-Feb-2014 13:06 353K 
[IMG]sa 364 Nazca Keramik m Köpfen.tif26-Feb-2014 13:06 1.4M 
[IMG]sa 365 Nazca Grab m Trophäen-Kopf.tif26-Feb-2014 13:06 387K 
[IMG]sa 366 Nazca Schale Krieger m Kopf-Tropähen.tif26-Feb-2014 13:06 625K 
[IMG]sa 367 Nazca Keramik Krieger m Trophäen-Kopf.tif26-Feb-2014 13:06 310K 
[IMG]sa 368 Nazca Schale m Trophäen-Köpfen.tif26-Feb-2014 13:06 278K 
[IMG]sa 369 Nazca Troph.-Köpfe von der Schale.tif26-Feb-2014 13:06 438K 
[IMG]sa 36a Urne Holz Zemi.tif26-Feb-2014 13:06 815K 
[IMG]sa 36b Urne Holz Zemi.tif26-Feb-2014 13:06 698K 
[IMG]sa 37 Kette m. Zemi Amulett Muschel-Glieder.tif26-Feb-2014 13:06 1.4M 
[IMG]sa 370 Nazca Becher m. Trophäen-Köpfen.tif26-Feb-2014 13:06 69K 
[IMG]sa 371 Nazca Gefäß in Form Trophäen-Kopf.tif26-Feb-2014 13:06 270K 
[IMG]sa 371a Nazca Gefäß Trophäen-Kopf.tif26-Feb-2014 13:06 193K 
[IMG]sa 372 Nazca Teller m. Trophäen-Köpfen.tif26-Feb-2014 13:06 1.1M 
[IMG]sa 373 Nazca Becher in Form Trophäen-Kopf.tif26-Feb-2014 13:06 1.2M 
[IMG]sa 374 Nazca Keramik Katzen-Gottheit u. Trophäe.tif26-Feb-2014 13:06 147K 
[IMG]sa 375 Nazca Keramik Katzen-Gottheit.tif26-Feb-2014 13:06 837K 
[IMG]sa 376 Nazca Keramik Figur m Katzen-Schnurrbart.tif26-Feb-2014 13:06 702K 
[IMG]sa 377 Nazca Keramik Fuchs-Maske.tif26-Feb-2014 13:06 344K 
[IMG]sa 378 Nazca Keramik Killer-Wal.tif26-Feb-2014 13:06 506K 
[IMG]sa 379 Nazca Keramik Affe.tif26-Feb-2014 13:06 507K 
[IMG]sa 38 Amulett Totenkopf Muschel.tif26-Feb-2014 13:06 205K 
[IMG]sa 380 Nazca Keramik Vogel.tif26-Feb-2014 13:06 283K 
[IMG]sa 381 Nazca Keramik Vogel.tif26-Feb-2014 13:06 294K 
[IMG]sa 382 Nazca Keramik Kolibris.tif26-Feb-2014 13:06 174K 
[IMG]sa 383 Nazca Keramik Kolibris.tif26-Feb-2014 13:06 167K 
[IMG]sa 384 Nazca Keramik Früchte u. Kaulquappen.tif26-Feb-2014 13:06 145K 
[IMG]sa 385 Nazca Keramik Fischer.tif26-Feb-2014 13:06 384K 
[IMG]sa 386 Nazca Keramik Frauen-Figur spät.tif26-Feb-2014 13:06 661K 
[IMG]sa 387 Nazca Keramik Frau Tätowierung gemalt.tif26-Feb-2014 13:06 311K 
[IMG]sa 388 Nazca Keramik Frau.tif26-Feb-2014 13:06 229K 
[IMG]sa 389 Nazca Keramik Frau Unterseite spät.tif26-Feb-2014 13:06 255K 
[IMG]sa 39 Anhänger Muschel.tif26-Feb-2014 13:06 564K 
[IMG]sa 390 Nazca Textil Mantel gestickt.tif26-Feb-2014 13:06 1.1M 
[IMG]sa 391 Nazca Textil Hemd.tif26-Feb-2014 13:06 798K 
[IMG]sa 392 Nazca Textil.tif26-Feb-2014 13:06 457K 
[IMG]sa 393 Nazca Textil bemalt.tif26-Feb-2014 13:06 534K 
[IMG]sa 394 Nazca Nasenschmuck Goldblech Schnurrbart der Katzengo.tif26-Feb-2014 13:06 235K 
[IMG]sa 394a Nazca Mumie m Nasenschmuck Golf Federncape.tif26-Feb-2014 13:06 1.2M 
[IMG]sa 395 Nazca Schmuck Gold.tif26-Feb-2014 13:06 599K 
[IMG]sa 396 Nazca Becher Katzen-Gottheit.tif26-Feb-2014 13:06 173K 
[IMG]sa 397 Nazca Scharrbilder Gerade.tif26-Feb-2014 13:06 1.9M 
[IMG]sa 398 Nazca Scharrbild Gerade m Mensch.tif26-Feb-2014 13:06 1.7M 
[IMG]sa 399 Nazca Scharrbilder Gerade m Auto.tif26-Feb-2014 13:06 1.5M 
[IMG]sa 4 Kolumbus.tif26-Feb-2014 13:06 1.4M 
[IMG]sa 40 Gefäß in Zemi -Form.tif26-Feb-2014 13:06 1.5M 
[IMG]sa 400 Nazca Scharrbild Fläche.tif26-Feb-2014 13:06 923K 
[IMG]sa 401 Nazca Scharrbild Blume.tif26-Feb-2014 13:06 1.3M 
[IMG]sa 402 Nazca Scharrbilder Gerade Figur.tif26-Feb-2014 13:06 1.6M 
[IMG]sa 403 Nazca Scharrbilder Spirale.tif26-Feb-2014 13:06 1.5M 
[IMG]sa 404 Nazca Scharrbild Spirale.tif26-Feb-2014 13:06 298K 
[IMG]sa 405 Nazca Scharrbild Affe.tif26-Feb-2014 13:06 1.3M 
[IMG]sa 406 Nazca Scharrbild Affe Nachzeichnung.tif26-Feb-2014 13:07 1.3M 
[IMG]sa 407 Nazca Scharrbild Affe Figur bei Fuß.tif26-Feb-2014 13:07 843K 
[IMG]sa 408 Nazca Scharrbild Vierfüßer.tif26-Feb-2014 13:07 461K 
[IMG]sa 409 Nazca Scharrbild Spinne.tif26-Feb-2014 13:07 852K 
[IMG]sa 41 Gefäß Keramik Zemi.tif26-Feb-2014 13:07 1.0M 
[IMG]sa 410 Nazca Scharrbild Spinne u Menschen.tif26-Feb-2014 13:07 825K 
[IMG]sa 411 Nazca Scharrbild Vogel.tif26-Feb-2014 13:07 2.0M 
[IMG]sa 412 Nazca Scharrbild.tif26-Feb-2014 13:07 1.4M 
[IMG]sa 413 Nazca Scharrbild Vogel m Schlangenhals.tif26-Feb-2014 13:07 883K 
[IMG]sa 414 Nazca Scharrbilder Vogel u a.tif26-Feb-2014 13:07 524K 
[IMG]sa 415 Nazca Scharrbild Kolibri.tif26-Feb-2014 13:07 859K 
[IMG]sa 416 Nazca Scharrbild Kolibri.tif26-Feb-2014 13:07 1.0M 
[IMG]sa 417 Nazca Scharrbild Mensch an Steilhang.tif26-Feb-2014 13:07 252K 
[IMG]sa 418 Nazca Scharrbilder Tiere Zeichnung.tif26-Feb-2014 13:07 504K 
[IMG]sa 418a Tiahuanaco Ruinenfeld.tif26-Feb-2014 13:07 1.0M 
[IMG]sa 419 Tiahuanaco Bennet-Stele 6 m.tif26-Feb-2014 13:07 830K 
[IMG]sa 42 Gefäß Keramik Zemi.tif26-Feb-2014 13:07 459K 
[IMG]sa 420 Tiahuanaco Kult-Hof versenkt Stele.tif26-Feb-2014 13:07 2.6M 
[IMG]sa 421 Tiahuanaco Ponce-Monolith 3 m.tif26-Feb-2014 13:07 1.3M 
[IMG]sa 421a Tiahuanaco Steinfigur Tränen.tif26-Feb-2014 13:07 483K 
[IMG]sa 422 Tiahuanaco Sonnentor.tif26-Feb-2014 13:07 778K 
[IMG]sa 423 Tiahuanaco Sonnentor Detail.tif26-Feb-2014 13:07 1.6M 
[IMG]sa 424 Tiahuanaco Sonnentor Viracocha-Zeichnung.tif26-Feb-2014 13:07 1.5M 
[IMG]sa 425 Tiahuanaco-Huari Keramik Frauen-Figur.tif26-Feb-2014 13:07 922K 
[IMG]sa 426 Tiahuanaco-Huari Keramik Becher.tif26-Feb-2014 13:07 917K 
[IMG]sa 427 Tiahuanaco-Huari Textil Hemd Figuren stabtragend.tif26-Feb-2014 13:07 1.3M 
[IMG]sa 428 Tiahuanaco-Huari Textil Hemd.tif26-Feb-2014 13:07 1.6M 
[IMG]sa 429 Tiahuanaco-Huari Textil Hemd.tif26-Feb-2014 13:07 669K 
[IMG]sa 43 Keramik Zemi.tif26-Feb-2014 13:07 3.1M 
[IMG]sa 430 Tiahuanaco-Huari Textil Tasche.tif26-Feb-2014 13:07 293K 
[IMG]sa 431 Tiahuanaco Keramik Küste.tif26-Feb-2014 13:07 283K 
[IMG]sa 432 Tiahuanaco Keramik Küste.tif26-Feb-2014 13:07 248K 
[IMG]sa 433 Tiahuanaco Keramik Küste.tif26-Feb-2014 13:07 742K 
[IMG]sa 434 Tiahuanaco Keramik Küste.tif26-Feb-2014 13:07 964K 
[IMG]sa 435 Tiahuanaco Keramik Gefäß Puma.tif26-Feb-2014 13:07 747K 
[IMG]sa 436 Tiahuanaco Keramik Küste.tif26-Feb-2014 13:07 559K 
[IMG]sa 437 Tiahuanaco Keramik Becher.tif26-Feb-2014 13:07 266K 
[IMG]sa 438 Tiahuanaco Keramik Flasche.tif26-Feb-2014 13:07 483K 
[IMG]sa 439 Tiahuanaco Keramik Gefäß Gottheit m Trophäe.tif26-Feb-2014 13:07 1.9M 
[IMG]sa 439a Tiahuanaco Keramik Gottheit stabtragend.tif26-Feb-2014 13:07 213K 
[IMG]sa 44 Dreispitzstein dunkel.tif26-Feb-2014 13:07 199K 
[IMG]sa 440 Tiahuanaco Keramik Gefäß.tif26-Feb-2014 13:07 715K 
[IMG]sa 441 Tiahuanaco Keramik Gefäß.tif26-Feb-2014 13:07 1.3M 
[IMG]sa 442 Tiahuanaco Keramik Küste.tif26-Feb-2014 13:07 1.2M 
[IMG]sa 443 Tiahuanaco-Huari Keramik Becher.tif26-Feb-2014 13:07 298K 
[IMG]sa 443a Tiahuanaco Stein Tränenspur-Motiv.tif26-Feb-2014 13:07 256K 
[IMG]sa 443b Tiahuanaco-Küste Mütze Chuko.tif26-Feb-2014 13:07 212K 
[IMG]sa 443c Tiahuanaco-Küste Mützen Chukos.tif26-Feb-2014 13:08 924K 
[IMG]sa 444 Tiahuanaco-Huari Mumie m Maske u Perücke.tif26-Feb-2014 13:08 896K 
[IMG]sa 445 Tiahuanaco-Huari Mumie m. Maske u Perücke.tif26-Feb-2014 13:08 325K 
[IMG]sa 446 Tiahuanaco Armreifen Gold.tif26-Feb-2014 13:08 258K 
[IMG]sa 447 Tiahuanaco Ohrpflöcke Gold.tif26-Feb-2014 13:08 212K 
[IMG]sa 448 Tiahuanaco Brustplatte Applikation Gold.tif26-Feb-2014 13:08 1.5M 
[IMG]sa 449 Tiahuanaco Becher Schnecke Steine Mosaik.tif26-Feb-2014 13:08 506K 
[IMG]sa 45 Dreispitzstein hell.tif26-Feb-2014 13:08 638K 
[IMG]sa 450 Tiahuanaco Pyrit-Spiegel Rückseite Mosaik Perlmutt St.tif26-Feb-2014 13:08 479K 
[IMG]sa 451 Tiahuanaco Kalkbehälter zum Coca-Kauen Einlegearbeit.tif26-Feb-2014 13:08 319K 
[IMG]sa 452 Tiahuanaco Schnecken-Trompete Einlegearbeit Gott stab.tif26-Feb-2014 13:08 721K 
[IMG]sa 453 Tiahuanaco Gottheit Einlege-Mosaik Holz Perlmutter St.tif26-Feb-2014 13:08 481K 
[IMG]sa 454 Inka Karte Ausdehnung des Reiches.tif26-Feb-2014 13:08 806K 
[IMG]sa 455 Inka Kostüm Puppe.tif26-Feb-2014 13:08 126K 
[IMG]sa 456 Inka Huayna Capac.tif26-Feb-2014 13:08 315K 
[IMG]sa 457 Inka Huascar.tif26-Feb-2014 13:08 263K 
[IMG]sa 458 INka Atahualpa.tif26-Feb-2014 13:08 260K 
[IMG]sa 459 Inka Francisco Pizarro.tif26-Feb-2014 13:08 1.1M 
[IMG]sa 46 Dreispitzstein m. 2 Zemi.tif26-Feb-2014 13:08 470K 
[IMG]sa 460 Inka Cajamarca Lösegeld-Zimmer.tif26-Feb-2014 13:08 887K 
[IMG]sa 461 Inka Atahualpas Ermordung.tif26-Feb-2014 13:08 205K 
[IMG]sa 462 Inka Tupac Amaru der letzte Inka.tif26-Feb-2014 13:08 272K 
[IMG]sa 463 Inka Karte Konquistadoren-Züge.tif26-Feb-2014 13:08 1.0M 
[IMG]sa 464 Inka Weltbild Götter ca. 1612.tif26-Feb-2014 13:08 385K 
[IMG]sa 464a Inka Mumie Kind Opfer.tif26-Feb-2014 13:08 1.6M 
[IMG]sa 464b Inka Huaca hl. Stätte wie dieser Stein.tif26-Feb-2014 13:08 474K 
[IMG]sa 464c Inka Huaca hl. Stätte Altar in Höhle.tif26-Feb-2014 13:08 135K 
[IMG]sa 465 Inka Zeichnung Sozial-Pyramide.tif26-Feb-2014 13:08 1.1M 
[IMG]sa 466 Inka u. Gemahlin in Sänfte.tif26-Feb-2014 13:08 288K 
[IMG]sa 466a Inka Steinkopf wahrsch. d. myth. Inka Viracocha.tif26-Feb-2014 13:08 1.2M 
[IMG]sa 467 Inka Bauern mit Grabscheit.tif26-Feb-2014 13:08 178K 
[IMG]sa 468 Inka Straßen-Karte S-Kolumbien bis Chile.tif26-Feb-2014 13:08 1.6M 
[IMG]sa 469 Inka Straße.tif26-Feb-2014 13:08 1.9M 
[IMG]sa 47 Dreispitzstein Zemi-Schlange.tif26-Feb-2014 13:08 584K 
[IMG]sa 470 Inka Straße.tif26-Feb-2014 13:08 725K 
[IMG]sa 471 Inka Hängebrücke.tif26-Feb-2014 13:08 691K 
[IMG]sa 472 Inka Kirche auf alten Tambo-Mauern.tif26-Feb-2014 13:08 1.0M 
[IMG]sa 472a Inka Bote Chasqui.tif26-Feb-2014 13:08 166K 
[IMG]sa 473 Inka Quipu Knotenschrift.tif26-Feb-2014 13:08 230K 
[IMG]sa 473a Inka Quipu Knotenschrift.tif26-Feb-2014 13:08 1.6M 
[IMG]sa 474 Inka Quipu Knotenschrift.tif26-Feb-2014 13:08 327K 
[IMG]sa 474 Inka Quipu.tif26-Feb-2014 13:08 541K 
[IMG]sa 475 Inka Quipu Zusatzschnüre.tif26-Feb-2014 13:08 326K 
[IMG]sa 476 Inka Quipu Inka inspiziert Lagerhäuser.tif26-Feb-2014 13:08 172K 
[IMG]sa 477 Inka Mauern d. Sonnentempels darüber Kirche.tif26-Feb-2014 13:08 2.1M 
[IMG]sa 478 Inka Mauern in Cuzco.tif26-Feb-2014 13:08 168K 
[IMG]sa 479 Inka Mauern in Cuzco.tif26-Feb-2014 13:08 1.6M 
[IMG]sa 479a Inka Frau vor Mauer.tif26-Feb-2014 13:08 266K 
[IMG]sa 48 Dreispitzstein Zemikopf.tif26-Feb-2014 13:08 1.9M 
[IMG]sa 480 Inka Mauer 12-eck-Stein.tif26-Feb-2014 13:08 229K 
[IMG]sa 481 Inka Mauer Nische trapezförmig.tif26-Feb-2014 13:08 1.0M 
[IMG]sa 482 Inka Türe trapezförmig.tif26-Feb-2014 13:08 1.6M 
[IMG]sa 482a Inka Türen trapezförmig.tif26-Feb-2014 13:08 470K 
[IMG]sa 483 Inka Festung Sacsahuaman.tif26-Feb-2014 13:08 403K 
[IMG]sa 484 Inka Festung Sacsahuaman.tif26-Feb-2014 13:08 1.6M 
[IMG]sa 484a Inka Festung Ollantaytambo.tif26-Feb-2014 13:08 591K 
[IMG]sa 484b Inka Landsitz Pisac.tif26-Feb-2014 13:08 1.1M 
[IMG]sa 485 Inka Machu Picchu.tif26-Feb-2014 13:08 168K 
[IMG]sa 485a Inka Machu Picchu.tif26-Feb-2014 13:09 1.9M 
[IMG]sa 486 Inka Machu Picchu.tif26-Feb-2014 13:09 532K 
[IMG]sa 487 INka Hiram Bingham 1911.tif26-Feb-2014 13:09 298K 
[IMG]sa 488 Inka Machu Picchu El Torreon Bingham-Foto.tif26-Feb-2014 13:09 1.7M 
[IMG]sa 489 Inka Machu Picchu El Torreon heute.tif26-Feb-2014 13:09 651K 
[IMG]sa 49 Dreispitzstein Zemikopf.tif26-Feb-2014 13:09 958K 
[IMG]sa 490 Inka Machu Picchu Tempel d 3 Fenster Binham-Foto.tif26-Feb-2014 13:09 1.0M 
[IMG]sa 491 Inka Machu Picchu Tempel d. 3 Fenster heute.tif26-Feb-2014 13:09 441K 
[IMG]sa 492 Inka Machu Picchu Intihuanta-Stein mit Binghams Begle.tif26-Feb-2014 13:09 1.1M 
[IMG]sa 493 Inka Machu Picchu Intihuanta-Stein.tif26-Feb-2014 13:09 1.6M 
[IMG]sa 494 Inka Machu Picchu Intihuanta u. Treppe.tif26-Feb-2014 13:09 2.0M 
[IMG]sa 495 Inka Machu Picchu alter Weg m. Zugbrücke.tif26-Feb-2014 13:09 1.1M 
[IMG]sa 496 Inka Machu Picchu hl. Grotte unter Sonnentempel.tif26-Feb-2014 13:09 301K 
[IMG]sa 497 Inka Machu Picchu Wasserbecken.tif26-Feb-2014 13:09 1.5M 
[IMG]sa 498 Inka Machu Picchu Lagerhäuser rekonstruiert.tif26-Feb-2014 13:09 1.5M 
[IMG]sa 499 Inka Machu Picchu Intihuanta-Stein.tif26-Feb-2014 13:09 736K 
[IMG]sa 5 hispaniola 1494.tif26-Feb-2014 13:09 695K 
[IMG]sa 50 Ballspielplatz Taino Puerto Rico.tif26-Feb-2014 13:09 933K 
[IMG]sa 500 Inka Machu Picchu Intihuanta-Stein.tif26-Feb-2014 13:09 1.4M 
[IMG]sa 501 Inka Weber Quechua heute Horizontal-Webstuhl.tif26-Feb-2014 13:09 1.4M 
[IMG]sa 502 INka Textil Uncu Schachbrettmuster.tif26-Feb-2014 13:09 395K 
[IMG]sa 503 Inka Textil Uncu geometr. detailreich.tif26-Feb-2014 13:09 374K 
[IMG]sa 504 Inka Textil Uncu 8-zackiger Stern u. a..tif26-Feb-2014 13:09 1.2M 
[IMG]sa 505 Inka Uncu Detail geometr. Zeichen.tif26-Feb-2014 13:09 1.7M 
[IMG]sa 505a Inka Textil Uncu Hemd.tif26-Feb-2014 13:09 1.5M 
[IMG]sa 506 Inka Textil figural selten.tif26-Feb-2014 13:09 337K 
[IMG]sa 507 Inka Textil Uncu.tif26-Feb-2014 13:09 1.8M 
[IMG]sa 508 Inka Mumienbündel m. Textilien.tif26-Feb-2014 13:09 1.1M 
[IMG]sa 509 Inka Keramik Aryballos.tif26-Feb-2014 13:09 769K 
[IMG]sa 509a Inka Keramik Aryballos.tif26-Feb-2014 13:09 1.1M 
[IMG]sa 51 Ballspiel-Gürtel Stein.tif26-Feb-2014 13:09 386K 
[IMG]sa 510 Inka Keramik Aryballos.tif26-Feb-2014 13:09 920K 
[IMG]sa 510a Inka Vase.tif26-Feb-2014 13:09 948K 
[IMG]sa 511 Inka Keramik Aryballos-Krug.tif26-Feb-2014 13:09 137K 
[IMG]sa 512 Inka Krug.tif26-Feb-2014 13:09 88K 
[IMG]sa 513 Inka Gefäße.tif26-Feb-2014 13:09 472K 
[IMG]sa 514 Inka Teller.tif26-Feb-2014 13:09 142K 
[IMG]sa 515 Inka Schale.tif26-Feb-2014 13:09 141K 
[IMG]sa 515a Inka Schale.tif26-Feb-2014 13:09 750K 
[IMG]sa 516 Inka Frauenfigur Gold.tif26-Feb-2014 13:09 166K 
[IMG]sa 517 Inka Frauenfigur Gold.tif26-Feb-2014 13:09 328K 
[IMG]sa 517a Inka Frauenfigur u. Aryballos Gold.tif26-Feb-2014 13:09 924K 
[IMG]sa 517b Inka Frauenfigur Silber Grabbeigabe.tif26-Feb-2014 13:09 433K 
[IMG]sa 518 Inka Männerfigur Gold 15 cm.tif26-Feb-2014 13:09 260K 
[IMG]sa 519 Inka Männerfigur Silber Muscheleinlage.tif26-Feb-2014 13:09 547K 
[IMG]sa 52 Joch Ballspiel-Gürtel M-Am. Veracruz Olmeken.tif26-Feb-2014 13:09 417K 
[IMG]sa 520 Inka Frauenfigur Silber u. Kupfer 24 cm.tif26-Feb-2014 13:09 559K 
[IMG]sa 521 Frauenfigur Silber Gold Kupfer 24 cm.tif26-Feb-2014 13:09 621K 
[IMG]sa 522 Inka Votivfigur Silber gekleidet Gewandnadel.tif26-Feb-2014 13:09 1.0M 
[IMG]sa 523 Inka Votivfigur mit Maiskolben Silber.tif26-Feb-2014 13:09 159K 
[IMG]sa 524 Inka Votivfigur mit Maiskolben Silber.tif26-Feb-2014 13:09 352K 
[IMG]sa 525 Inka Gewandnadeln Tupu Silber Gold.tif26-Feb-2014 13:09 763K 
[IMG]sa 526 Inka Tumi Zeremonialmesser Kupfer Lama.tif26-Feb-2014 13:09 208K 
[IMG]sa 527 Inka Tumi Ritualmesser Jäger Kupfer.tif26-Feb-2014 13:09 439K 
[IMG]sa 528 Inka Tumi Ritualmesser 2 Krieger Kupfer.tif26-Feb-2014 13:09 895K 
[IMG]sa 529 Inka Lama Votivgabe Silber Gold u. a. Einlagen.tif26-Feb-2014 13:10 927K 
[IMG]sa 53 Objekt f. Ballspiel Stein.tif26-Feb-2014 13:10 324K 
[IMG]sa 530 Inka Lama Votivgabe Silber gelötet.tif26-Feb-2014 13:10 659K 
[IMG]sa 530a Inka Lama Gold.tif26-Feb-2014 13:10 891K 
[IMG]sa 531 Inka Kindermumie m. Gold-Lama u. a. Beigaben.tif26-Feb-2014 13:10 1.4M 
[IMG]sa 532 Inka Stein-Lama.tif26-Feb-2014 13:10 324K 
[IMG]sa 533 Inka Stein-Lama.tif26-Feb-2014 13:10 77K 
[IMG]sa 534 Inka Stein-Lama.tif26-Feb-2014 13:10 249K 
[IMG]sa 535 Inka Kero-Becher Silber Krieger.tif26-Feb-2014 13:10 187K 
[IMG]sa 536 Inka Kero-Becher Metall abgestuft.tif26-Feb-2014 13:10 312K 
[IMG]sa 537 Inka Kero-Becher Holz bemalt.tif26-Feb-2014 13:10 213K 
[IMG]sa 537a Inka Kero-Becher Holz bemalt.tif26-Feb-2014 13:10 1.2M 
[IMG]sa 538 Inka Kero-Becher Holz Jaguarkopf bemalt.tif26-Feb-2014 13:10 180K 
[IMG]sa 538a Inka Kero-Becher Holz Tierkopf bemalt.tif26-Feb-2014 13:10 364K 
[IMG]sa 539 Inka Kero-Becher Holz bemalt.tif26-Feb-2014 13:10 273K 
[IMG]sa 54 Objekt f. Ballspiel Rekonstruktion.tif26-Feb-2014 13:10 228K 
[IMG]sa 540 Inka Kero-Becher Kopf-Relief Holz bemalt.tif26-Feb-2014 13:10 294K 
[IMG]sa 540a Inka Kero-Becher Holz Kopf-Relief bemalt.tif26-Feb-2014 13:10 436K 
[IMG]sa 541 Inka Kero-Becher Holz bemalt.tif26-Feb-2014 13:10 402K 
[IMG]sa 542 Inka Kero-Becher kolonial Holz bemalt.tif26-Feb-2014 13:10 501K 
[IMG]sa 543 Quechua Alkalde eines Ayllu Bürgermeister.tif26-Feb-2014 13:10 316K 
[IMG]sa 544 Quechua Alkalde eines Ayllu Bürgermeister einer Dorfg.tif26-Feb-2014 13:10 4.5M 
[IMG]sa 545 Quechua Kondor-Rachi-Fest.tif26-Feb-2014 13:10 593K 
[IMG]sa 546 Quechua Medizinfrau auf Markt.tif26-Feb-2014 13:10 370K 
[IMG]sa 547 Quechua Orakel-Priester Opfer für Pachamama Mutter Er.tif26-Feb-2014 13:10 1.6M 
[IMG]sa 548 Quechua Markt für Zaubermittel mit Lama-Föten.tif26-Feb-2014 13:10 2.1M 
[IMG]sa 549 Quechua Lama-Tanz mit Maskentänzern.tif26-Feb-2014 13:10 1.3M 
[IMG]sa 55 Karte Goldland Kolumbien.tif26-Feb-2014 13:10 1.3M 
[IMG]sa 550 Quechua Fest mit Maskentänzer.tif26-Feb-2014 13:10 1.4M 
[IMG]sa 551 Quechua Maske.tif26-Feb-2014 13:10 1.5M 
[IMG]sa 552 Quetschua Tiermaske Jaguar.tif26-Feb-2014 13:10 1.6M 
[IMG]sa 553 Quetschua Tanz u. alte Trachten.tif26-Feb-2014 13:10 1.0M 
[IMG]sa 554 Quetschua Chicha-Maisbier wie Inkas.tif26-Feb-2014 13:10 776K 
[IMG]sa 555 Quetschua Hirte mit Flöte.tif26-Feb-2014 13:10 1.7M 
[IMG]sa 556 Quetschua spielt Panflöte.tif26-Feb-2014 13:10 1.5M 
[IMG]sa 557 Flöten präkolumbisch Chancay links Inka rechts.tif26-Feb-2014 13:10 1.4M 
[IMG]sa 558 Quechua Schneckentrompete pututo.tif26-Feb-2014 13:10 1.8M 
[IMG]sa 559 Aymara Binsenboote Titicacasee.tif26-Feb-2014 13:10 1.3M 
[IMG]sa 55a Guss in verl. Form Sinu Ohrring.tif26-Feb-2014 13:10 771K 
[IMG]sa 56 Sinu Anhänger.tif26-Feb-2014 13:10 217K 
[IMG]sa 56 Sinu Stabaufsatz.tif26-Feb-2014 13:10 762K 
[IMG]sa 560 Aymara Titicacasee schwimmende Insel.tif26-Feb-2014 13:10 1.1M 
[IMG]sa 561 Aymara Binsenboot mit Segel.tif26-Feb-2014 13:10 299K 
[IMG]sa 562 Aymara Bau der Binsenboote.tif26-Feb-2014 13:10 289K 
[IMG]sa 563 Aymara Bodenbau mit Harke Kartoffelanbau.tif26-Feb-2014 13:10 461K 
[IMG]sa 564 Aymara alte Bräuche Rauch-Opfer bei christl. Prozessi.tif26-Feb-2014 13:10 1.3M 
[IMG]sa 565 Mapuche Karte Chile Mapuche-Gebiet.tif26-Feb-2014 13:10 792K 
[IMG]sa 566 Mapuche Familie 19. Jh..tif26-Feb-2014 13:10 799K 
[IMG]sa 567 Mapuche Familie Foto 1883.tif26-Feb-2014 13:11 406K 
[IMG]sa 568 Atacameno-Kultur Chile Schnupf-Tablett 700 - 1100 n. .tif26-Feb-2014 13:11 739K 
[IMG]sa 569 Diaguita-Kultur Chile Keramik 1000 - 1400.tif26-Feb-2014 13:11 263K 
[IMG]sa 57 Darien-Platte Sinu Quimbaya.tif26-Feb-2014 13:11 642K 
[IMG]sa 570 Diaguita-Kultur Chile Keramik 1000 - 1400.tif26-Feb-2014 13:11 225K 
[IMG]sa 571 Santamaria-Kultur, Argentinien, der Diaguita-Kultur v.tif26-Feb-2014 13:11 960K 
[IMG]sa 572 Mapuche Bola Tehuelche Argentinien.tif26-Feb-2014 13:11 216K 
[IMG]sa 573 Mapuche Frauen 19. Jh..tif26-Feb-2014 13:11 601K 
[IMG]sa 574 Mapuche Frau im Silberschmuck.tif26-Feb-2014 13:11 1.9M 
[IMG]sa 575 Mapuche Frau Silberschmuck ältere Form.tif26-Feb-2014 13:11 576K 
[IMG]sa 576 Mapuche Frauen im Silberschmuck.tif26-Feb-2014 13:11 440K 
[IMG]sa 577 Mapuche Frau Silberschmuck 1929.tif26-Feb-2014 13:11 200K 
[IMG]sa 578 Mapuche Frau Silberschmuck einfach 20. Jh..tif26-Feb-2014 13:11 517K 
[IMG]sa 579 Mapuche Frauen 18., 19., 20. Jh..tif26-Feb-2014 13:11 429K 
[IMG]sa 58 Darien-PLatte Sinu Quimbaya.tif26-Feb-2014 13:11 264K 
[IMG]sa 580 Mapuche Gewandscheiben-Nadeln Topu.tif26-Feb-2014 13:11 957K 
[IMG]sa 581 Mapuche Gewandscheiben-Nadeln Topu.tif26-Feb-2014 13:11 886K 
[IMG]sa 582 Mapuche Kugelkopf-Gewandnadeln.tif26-Feb-2014 13:11 735K 
[IMG]sa 583 Mapuche Kugelkopf-Gewandnadel mit Anhänger.tif26-Feb-2014 13:11 485K 
[IMG]sa 584 Mapuche Brustschmuck Siquel.tif26-Feb-2014 13:11 550K 
[IMG]sa 585 Mapuche Brustschmuck Siquel.tif26-Feb-2014 13:11 703K 
[IMG]sa 586 Mapuche Frau mit Brustschmuck Siquel u. Nadel.tif26-Feb-2014 13:11 492K 
[IMG]sa 587 Mapuche Halskette.tif26-Feb-2014 13:11 882K 
[IMG]sa 588 Mapuche Einzel-Ketten neben Siquel.tif26-Feb-2014 13:11 893K 
[IMG]sa 589 Mapuche Anhänger teils anthropomorph.tif26-Feb-2014 13:11 554K 
[IMG]sa 59 Darien-PLatte Sinu Quimbaya.tif26-Feb-2014 13:11 405K 
[IMG]sa 590 Mapuche Kopfband mit Silber-Halbkugeln u. Rosette.tif26-Feb-2014 13:11 337K 
[IMG]sa 591 Mapuche Kopfband mit Silber-Halbkugeln u. Rosette.tif26-Feb-2014 13:11 315K 
[IMG]sa 592 Mapuche Kopf- und Zopfband Silber-Halkugeln auf Texti.tif26-Feb-2014 13:11 310K 
[IMG]sa 593 Mapuche Kopf-Ketten aus Silber.tif26-Feb-2014 13:11 681K 
[IMG]sa 594 Mapuche Silber-Ohrgehänge trapezförmig.tif26-Feb-2014 13:11 619K 
[IMG]sa 595 Mapuche Silber-Ohrringe halbmondförmig.tif26-Feb-2014 13:11 960K 
[IMG]sa 596 Mapuche Topu-Gewandnadel m. Anhänger.tif26-Feb-2014 13:11 867K 
[IMG]sa 597 Mapuche Frauen heute m. Familienschmuck bei Fest.tif26-Feb-2014 13:11 654K 
[IMG]sa 598 Feuerland Karte Magellan-Straße Beagle-Kanal.tif26-Feb-2014 13:11 798K 
[IMG]sa 599 Feuerland Fernando Magellan.tif26-Feb-2014 13:11 419K 
[IMG]sa 59a Darien-Platte Sinu-Quimbaya-Tairona.tif26-Feb-2014 13:11 250K 
[IMG]sa 59b Darien-Platte Sinu-Quimbaya-Tairona.tif26-Feb-2014 13:11 1.3M 
[IMG]sa 6 Karte Taino.tif26-Feb-2014 13:11 1.1M 
[IMG]sa 60 Sinu Nasenschmuck.tif26-Feb-2014 13:11 223K 
[IMG]sa 600 Feuerland Magellan-Schiff Victoria.tif26-Feb-2014 13:11 297K 
[IMG]sa 601 Feuerland früher Stich.tif26-Feb-2014 13:11 479K 
[IMG]sa 601a Feuerland Boot mit Feuer Stich 1598.tif26-Feb-2014 13:11 202K 
[IMG]sa 602 Feuerland die 3 Stämme.tif26-Feb-2014 13:11 560K 
[IMG]sa 603 Feuerland 2 Selknam-Familien.tif26-Feb-2014 13:11 284K 
[IMG]sa 604 Feuerland wilde Guanacos.tif26-Feb-2014 13:11 110K 
[IMG]sa 605 Feuerland Nagetier Cururo.tif26-Feb-2014 13:11 91K 
[IMG]sa 606 Feuerland Selknam Mann.tif26-Feb-2014 13:11 606K 
[IMG]sa 607 Feuerland Selknam Stangenzelt od. -hütte.tif26-Feb-2014 13:11 623K 
[IMG]sa 608 Feuerland Selknam Leder-Windschirm.tif26-Feb-2014 13:11 713K 
[IMG]sa 609 Feuerland Selknam-Mann mit Alltags-Bemalung, Fellmant.tif26-Feb-2014 13:11 327K 
[IMG]sa 61 Sinu Nasenschmuck.tif26-Feb-2014 13:11 1.2M 
[IMG]sa 610 Feuerland Selknam-Jäger.tif26-Feb-2014 13:11 696K 
[IMG]sa 611 Feuerland Alakaluf im Boot auf Meer.tif26-Feb-2014 13:11 194K 
[IMG]sa 612 Feuerland Alakaluf altes Rindenboot.tif26-Feb-2014 13:11 198K 
[IMG]sa 613 Feuerland Alakaluf befestigt Speerspitze.tif26-Feb-2014 13:11 427K 
[IMG]sa 614 Feuerland Alakaluf mit Harpune.tif26-Feb-2014 13:11 497K 
[IMG]sa 615 Feuerland Alakaluf mit Rahmennetz für Seelöwen.tif26-Feb-2014 13:11 580K 
[IMG]sa 616 Feuerland Alakaluf mit Schleuder Vogeljagd.tif26-Feb-2014 13:11 590K 
[IMG]sa 617 Feuerland Alakaluf-Frau m. Seelöwen-Fell-Kleid.tif26-Feb-2014 13:11 488K 
[IMG]sa 618 Feuerland Yamana-Mädchen m. Leder-Schamschurz.tif26-Feb-2014 13:11 506K 
[IMG]sa 619 Feuerland Alakaluf-Frau m. Hirschfell-Mantel.tif26-Feb-2014 13:11 639K 
[IMG]sa 62 Sinu Ohrschmuck.tif26-Feb-2014 13:11 439K 
[IMG]sa 620 Feuerland Yamana-Frau u. Kind vor Rundhütte grasgedec.tif26-Feb-2014 13:11 513K 
[IMG]sa 621 Feuerland Alakaluf-Frau in Plankenboot m. Muscheln.tif26-Feb-2014 13:11 244K 
[IMG]sa 622 Feuerland Alakaluf beim Feuer-Quirln.tif26-Feb-2014 13:11 661K 
[IMG]sa 623 Feuerland Selknam-Schamane Tenenesk.tif26-Feb-2014 13:11 688K 
[IMG]sa 624 Feuerland Schamane der Alakaluf.tif26-Feb-2014 13:11 235K 
[IMG]sa 625 Feuerland Schamane der Yamana.tif26-Feb-2014 13:11 179K 
[IMG]sa 626 Feuerland Martin Gusinde 1922 Yamana-Jugendweihe.tif26-Feb-2014 13:11 315K 
[IMG]sa 627 Feuerland Yamana-Mann Trauerbemalung.tif26-Feb-2014 13:11 441K 
[IMG]sa 628 Feuerland Yamana-Frau Trauerbemalung.tif26-Feb-2014 13:11 402K 
[IMG]sa 629 Feuerland Yamana Trauerbemalung.tif26-Feb-2014 13:12 366K 
[IMG]sa 63 Tairona Zeremonialmesser Tumi.tif26-Feb-2014 13:12 198K 
[IMG]sa 630 Feuerland Yamana Trauerbemalung.tif26-Feb-2014 13:12 240K 
[IMG]sa 631 Feuerland Selknam-Frau m. Trauer-Tonsur.tif26-Feb-2014 13:12 634K 
[IMG]sa 632 Feuerland Yamana Initiationshütte 1922 im Bau.tif26-Feb-2014 13:12 557K 
[IMG]sa 633 Feuerland Yamana Teilnehmer der Jugendweihe 1922.tif26-Feb-2014 13:12 654K 
[IMG]sa 634 Feuerland Yamana Bemalung des Jugendweihe-Leiters.tif26-Feb-2014 13:12 266K 
[IMG]sa 635 Feuerland Yamana Wächter der Jugendweihe.tif26-Feb-2014 13:12 592K 
[IMG]sa 636 Feuerland Yamana Teilnehmer an Jugendweihe.tif26-Feb-2014 13:12 363K 
[IMG]sa 637 Feuerland Yamana Gesichtsbemalungen bei Jugendweihe.tif26-Feb-2014 13:12 732K 
[IMG]sa 638 Feuerland Selknam Kloketen-Hütte u. Kosmenk-Geister.tif26-Feb-2014 13:12 269K 
[IMG]sa 639 Feuerland Selknam Prüflinge bemalt.tif26-Feb-2014 13:12 702K 
[IMG]sa 64 Tairona Figur.tif26-Feb-2014 13:12 384K 
[IMG]sa 640 Feuerland Selknam Talen-Geist.tif26-Feb-2014 13:12 558K 
[IMG]sa 641 Feuerland Selknam Soorte-Geister.tif26-Feb-2014 13:12 424K 
[IMG]sa 642 Feuerland Selknam Keternen-Kind u. Schamane.tif26-Feb-2014 13:12 657K 
[IMG]sa 643 Feuerland Selknam Kataix-Geist, der Gehörnte.tif26-Feb-2014 13:12 715K 
[IMG]sa 644 Feuerland Selknam-Männer, rituell von Kataix getötet.tif26-Feb-2014 13:12 413K 
[IMG]sa 645 Feuerland Selknam Ulen-Geist, der Dickkopf.tif26-Feb-2014 13:12 503K 
[IMG]sa 646 Feuerland Selknam Matan-Geist, der Gutmütige.tif26-Feb-2014 13:12 544K 
[IMG]sa 647 Feuerland Selknam Kosmenk u. Kulan, Geister-Ehepaar.tif26-Feb-2014 13:12 749K 
[IMG]sa 648 Feuerland Selknam Tanu-Geist, der lustige Dickbauch.tif26-Feb-2014 13:12 550K 
[IMG]sa 649 Feuerland Selknam Kewanix-Spiel der Männer für die Fr.tif26-Feb-2014 13:12 667K 
[IMG]sa 65 Tairona Figur.tif26-Feb-2014 13:12 219K 
[IMG]sa 650 Feuerland Selknam Wetterzauber-Tanz der Männer.tif26-Feb-2014 13:12 308K 
[IMG]sa 651 Feuerland Selknam Indianer-Jäger Julius Popper.tif26-Feb-2014 13:12 185K 
[IMG]sa 652 Feuerland Yamana - eine der letzten 1963.tif26-Feb-2014 13:12 87K 
[IMG]sa 66 Tairona Figur.tif26-Feb-2014 13:12 467K 
[IMG]sa 67 Tairona Figuren.tif26-Feb-2014 13:12 895K 
[IMG]sa 68 Tairona Nasenschmuck.tif26-Feb-2014 13:12 181K 
[IMG]sa 69 Tairona Nasenschmuck.tif26-Feb-2014 13:12 107K 
[IMG]sa 7 Kolumbus Landung.tif26-Feb-2014 13:12 2.0M 
[IMG]sa 70 Tairona Nasenschmuck.tif26-Feb-2014 13:12 530K 
[IMG]sa 71 Tairona Nasenschmuck.tif26-Feb-2014 13:12 780K 
[IMG]sa 72 Tairona Lippepflock.tif26-Feb-2014 13:12 398K 
[IMG]sa 73 Tairona Ohrschmuck.tif26-Feb-2014 13:12 429K 
[IMG]sa 74 Calima Brustplatte.tif26-Feb-2014 13:12 729K 
[IMG]sa 74a Calima Brustplatte.tif26-Feb-2014 13:12 831K 
[IMG]sa 75 Calima Totenmaske.tif26-Feb-2014 13:12 698K 
[IMG]sa 76 Calima Figur Anhänger.tif26-Feb-2014 13:12 289K 
[IMG]sa 77 Calima Nasenschmuck.tif26-Feb-2014 13:12 115K 
[IMG]sa 78 Calima Nasenschmuck.tif26-Feb-2014 13:12 127K 
[IMG]sa 79 Calima Nasenschmuck.tif26-Feb-2014 13:12 756K 
[IMG]sa 8 Zemi hockend.tif26-Feb-2014 13:12 840K 
[IMG]sa 80 Calima Ohrpflöcke.tif26-Feb-2014 13:12 460K 
[IMG]sa 81 Calima Schmucknadel-Köpfe.tif26-Feb-2014 13:12 535K 
[IMG]sa 83 Calima Keramik.tif26-Feb-2014 13:12 819K 
[IMG]sa 84 Tolima Brustplatte.tif26-Feb-2014 13:12 846K 
[IMG]sa 85 Tolima Brustplatte.tif26-Feb-2014 13:12 1.1M 
[IMG]sa 86 Tolima Brustplatte.tif26-Feb-2014 13:12 3.5M 
[IMG]sa 87 Tolima Brustplatte.tif26-Feb-2014 13:12 1.0M 
[IMG]sa 88 Tolima Brustplatte.tif26-Feb-2014 13:12 2.5M 
[IMG]sa 89 Tolima Fledermaus-Anhänger.tif26-Feb-2014 13:12 137K 
[IMG]sa 9 Zemi Gürtel Wien.tif26-Feb-2014 13:12 630K 
[IMG]sa 90 Quimbaya Kalkbehälter Figur.tif26-Feb-2014 13:12 777K 
[IMG]sa 91 Quimbaya Flasche Kalkbehälter.tif26-Feb-2014 13:12 1.3M 
[IMG]sa 92 Quimbaya Kalkbehälter Figur.tif26-Feb-2014 13:12 1.1M 
[IMG]sa 93 Quimbaya Kalkbehälter.tif26-Feb-2014 13:12 471K 
[IMG]sa 94 Quimbaya Kalkbehälter.tif26-Feb-2014 13:12 695K 
[IMG]sa 95 Quimbaya Kalkbehälter.tif26-Feb-2014 13:12 817K 
[IMG]sa 96 Quimbaya Figur.tif26-Feb-2014 13:12 169K 
[IMG]sa 97 Quimbaya Figur Anhänger.tif26-Feb-2014 13:12 1.1M 
[IMG]sa 98 Quimbaya Gold-Helm.tif26-Feb-2014 13:13 553K 
[IMG]sa 99 Quimbaya Gold-Kopf.tif26-Feb-2014 13:13 399K 
[IMG]SA266C~1.TIF26-Feb-2014 13:13 1.2M 
[IMG]SA82CA~1.TIF26-Feb-2014 13:13 782K 

Apache/2.2.16 (Debian) Server at www.uni-ak.ac.at Port 80